SL-16 DEB, 43353

Orbit data source: Space-Track

SL-16 DEB, 43353 is space debris in LEO originally from a launch on Tue, 31 Oct 1995 UTC launched from the Tyuratam Missile And Space Complex (TTMTR). Debris objects in space refer to the collection of defunct objects orbiting the Earth. Examples of debris include non-operational satellites, rocket bodies, and fragments generated from explosions, collisions, or faulty payload assembly.

Loading next visibility...
Identifier
43353, 1995-058N
Orbit
LEO
Country
Flag of CISCIS
Related business
Manufacturer
Unknown
Mission
Spacecraft
Bus & Motor
Unknown
Mass
Unknown
Launch date (UTC)
1995-10-31 (30 years ago)
Launch vehicle
Unknown
Launch site
Tyuratam Missile And Space Complex (TTMTR)
Object type
Payload
Rocket body
Debris
Shape & HBR
Unknown
Radar Cross Section
Small (<0.1 m²)

Expand to show TLE details & history
Last TLE update: 7 hours ago

TLE from 7 hours ago
0 SL-16 DEB
1 43353U 95058N   25260.93260790  .00014725  00000-0  29747-2 0  9996
2 43353  70.9922 354.3330 0020939 254.5210 105.3625 14.61317443616001
Epoch: 2025-09-17T22:22Z
TLE epoch observation values (Epoch: 2025-09-17T22:22:57.322Z)
Latitude
0.00001°
Longitude
21.4927°
Altitude
695.325 km
Speed
7.507 km/s
True Right ascension
23h 37m 19s
True Declination
0° 00' 00"
Sunlit
Object was in full shadow at epoch
Visualization orbit readout
Latitude
Unknown
Longitude
Unknown
Altitude
Unknown
Speed
Unknown
Apparent Right ascension
Unknown
Apparent Declination
Unknown
Sunlit
N/A
Visualization observer readout
Local Sidereal Time
22:28:58
Azimuth
Unknown
Elevation
Unknown
Doppler factor
Unknown
Orbital elements
Apogee altitude
701.597 km
Perigee altitude
672.01 km
Semi-major axis
7,064.941 km
Eccentricity
0.00209
Inclination
70.9922°
RAAN
354.333°
Arg. of periapsis
254.521°
True anomaly
105.59371°
Mean anomaly
105.3625°
Eccentric anomaly
105.47812°
Mean motion
3.65494 °/min
Orbital period
98.5 mins
BSTAR
0.0029747
Loading maneuver chart data...
Computing Atmospheric mass density...
Loading historical data...
Loading historical data...
Loading historical data...
Loading historical data...
Loading historical data...
Loading historical data...
Loading historical data...

Documentation

Showing up to 5 results
|